| time (UTC) | temp C | wind direction | speed KPH | gust KPH | rain 1hr cm | rain 24hr cm | rain mn cm | humidity % | barometer mb |
| 20260505040100 | 17 | 307 | 0.0 | 3.2 | 0.00 | 0.00 | 0.00 | 51 | 1008.8 |
| 20260505035558 | 17 | 129 | 0.0 | 4.8 | 0.00 | 0.00 | 0.00 | 51 | 1008.8 |
| 20260505035058 | 17 | 0 | 0.0 | 4.8 | 0.00 | 0.00 | 0.00 | 50 | 1008.9 |
| 20260505034601 | 17 | 0 | 0.0 | 4.8 | 0.00 | 0.00 | 0.00 | 50 | 1008.8 |
| 20260505034101 | 17 | 0 | 0.0 | 4.8 | 0.00 | 0.00 | 0.00 | 50 | 1008.8 |
| 20260505033602 | 17 | 152 | 0.0 | 4.8 | 0.00 | 0.00 | 0.00 | 50 | 1008.7 |
| 20260505033059 | 17 | 143 | 0.0 | 3.2 | 0.00 | 0.00 | 0.00 | 50 | 1008.8 |
| 20260505032558 | 17 | 0 | 0.0 | 3.2 | 0.00 | 0.00 | 0.00 | 50 | 1008.8 |
| 20260505032057 | 17 | 82 | 0.0 | 1.6 | 0.00 | 0.00 | 0.00 | 50 | 1008.9 |
| 20260505031610 | 17 | 0 | 0.0 | 1.6 | 0.00 | 0.00 | 0.00 | 50 | 1008.9 |
| 20260505031058 | 17 | 0 | 0.0 | 1.6 | 0.00 | 0.00 | 0.00 | 49 | 1008.9 |
| 20260505030558 | 17 | 0 | 0.0 | 1.6 | 0.00 | 0.00 | 0.00 | 49 | 1008.8 |
| 20260505030104 | 17 | 0 | 0.0 | 1.6 | 0.00 | 0.00 | 0.00 | 49 | 1008.8 |
| 20260505025558 | 17 | 0 | 0.0 | 6.4 | 0.00 | 0.00 | 0.00 | 48 | 1008.8 |
| 20260505025058 | 18 | 0 | 0.0 | 6.4 | 0.00 | 0.00 | 0.00 | 48 | 1009.0 |
| 20260505024603 | 18 | 96 | 0.0 | 4.8 | 0.00 | 0.00 | 0.00 | 49 | 1009.0 |
| 20260505024101 | 18 | 0 | 0.0 | 4.8 | 0.00 | 0.00 | 0.00 | 48 | 1009.0 |
| 20260505023558 | 18 | 212 | 0.0 | 3.2 | 0.00 | 0.00 | 0.00 | 48 | 1009.0 |
| 20260505023120 | 18 | 0 | 0.0 | 3.2 | 0.00 | 0.00 | 0.00 | 48 | 1009.0 |
| 20260505022558 | 18 | 0 | 0.0 | 3.2 | 0.00 | 0.00 | 0.00 | 47 | 1009.0 |
| 20260505022102 | 18 | 282 | 0.0 | 8.0 | 0.00 | 0.00 | 0.00 | 48 | 1009.0 |
| 20260505021601 | 18 | 122 | 0.0 | 11.3 | 0.00 | 0.00 | 0.00 | 47 | 1009.1 |
| 20260505021100 | 18 | 0 | 1.6 | 11.3 | 0.00 | 0.00 | 0.00 | 47 | 1009.1 |
| 20260505020601 | 18 | 292 | 1.6 | 12.9 | 0.00 | 0.00 | 0.00 | 47 | 1009.1 |
| 20260505020112 | 18 | 0 | 0.0 | 12.9 | 0.00 | 0.00 | 0.00 | 46 | 1009.0 |
| 20260505015559 | 18 | 0 | 3.2 | 12.9 | 0.00 | 0.00 | 0.00 | 46 | 1009.1 |
| 20260505015059 | 18 | 179 | 1.6 | 12.9 | 0.00 | 0.00 | 0.00 | 47 | 1009.0 |
| 20260505014611 | 18 | 149 | 0.0 | 9.7 | 0.00 | 0.00 | 0.00 | 46 | 1009.0 |
| 20260505014059 | 19 | 268 | 1.6 | 11.3 | 0.00 | 0.00 | 0.00 | 46 | 1009.0 |
| 20260505013558 | 19 | 311 | 3.2 | 12.9 | 0.00 | 0.00 | 0.00 | 45 | 1008.8 |
| 20260505013110 | 19 | 94 | 1.6 | 12.9 | 0.00 | 0.00 | 0.00 | 45 | 1008.8 |
| 20260505012558 | 20 | 157 | 3.2 | 14.5 | 0.00 | 0.00 | 0.00 | 44 | 1008.8 |
| 20260505012058 | 20 | 224 | 1.6 | 14.5 | 0.00 | 0.00 | 0.00 | 44 | 1008.7 |
| 20260505011606 | 20 | 112 | 1.6 | 8.0 | 0.00 | 0.00 | 0.00 | 44 | 1008.6 |
| 20260505011101 | 20 | 137 | 1.6 | 9.7 | 0.00 | 0.00 | 0.00 | 44 | 1008.6 |
| 20260505010558 | 20 | 212 | 1.6 | 9.7 | 0.00 | 0.00 | 0.00 | 44 | 1008.5 |
| 20260505005558 | 20 | 147 | 1.6 | 14.5 | 0.00 | 0.00 | 0.00 | 44 | 1008.3 |
| 20260505005058 | 20 | 0 | 1.6 | 14.5 | 0.00 | 0.00 | 0.00 | 43 | 1008.3 |
| 20260505004601 | 20 | 7 | 3.2 | 14.5 | 0.00 | 0.00 | 0.00 | 43 | 1008.4 |
| 20260505004101 | 20 | 0 | 3.2 | 9.7 | 0.00 | 0.00 | 0.00 | 44 | 1008.4 |
| 20260505003600 | 20 | 195 | 1.6 | 16.1 | 0.00 | 0.00 | 0.00 | 43 | 1008.4 |
| 20260505003100 | 20 | 257 | 3.2 | 16.1 | 0.00 | 0.00 | 0.00 | 43 | 1008.4 |
| 20260505002559 | 20 | 117 | 1.6 | 12.9 | 0.00 | 0.00 | 0.00 | 43 | 1008.3 |
| 20260505002058 | 20 | 231 | 0.0 | 9.7 | 0.00 | 0.00 | 0.00 | 43 | 1008.3 |
| 20260505001610 | 20 | 192 | 3.2 | 9.7 | 0.00 | 0.00 | 0.00 | 43 | 1008.3 |
| 20260505001058 | 20 | 217 | 0.0 | 11.3 | 0.00 | 0.00 | 0.00 | 43 | 1008.2 |
| 20260505000558 | 20 | 217 | 1.6 | 11.3 | 0.00 | 0.00 | 0.00 | 42 | 1008.1 |
| 20260505000117 | 20 | 311 | 3.2 | 9.7 | 0.00 | 0.00 | 0.00 | 42 | 1008.1 |
| 20260504235558 | 20 | 154 | 1.6 | 9.7 | 0.00 | 0.00 | 0.00 | 42 | 1008.0 |
| 20260504235101 | 20 | 174 | 0.0 | 12.9 | 0.00 | 0.00 | 0.00 | 41 | 1008.0 |
| 20260504234601 | 21 | 99 | 1.6 | 12.9 | 0.00 | 0.00 | 0.00 | 41 | 1008.0 |
| 20260504234100 | 21 | 255 | 0.0 | 16.1 | 0.00 | 0.00 | 0.00 | 40 | 1008.0 |
| 20260504233558 | 21 | 224 | 3.2 | 16.1 | 0.00 | 0.00 | 0.00 | 40 | 1007.9 |
| 20260504233106 | 21 | 219 | 3.2 | 16.1 | 0.00 | 0.00 | 0.00 | 40 | 1008.0 |
| 20260504232600 | 21 | 47 | 1.6 | 11.3 | 0.00 | 0.00 | 0.00 | 39 | 1007.9 |
| 20260504232100 | 21 | 143 | 1.6 | 14.5 | 0.00 | 0.00 | 0.00 | 38 | 1007.8 |
| 20260504231559 | 22 | 134 | 4.8 | 14.5 | 0.00 | 0.00 | 0.00 | 38 | 1007.8 |
| 20260504231058 | 22 | 0 | 4.8 | 16.1 | 0.00 | 0.00 | 0.00 | 37 | 1007.8 |
| 20260504230559 | 22 | 230 | 3.2 | 16.1 | 0.00 | 0.00 | 0.00 | 37 | 1007.7 |
| 20260504230107 | 22 | 0 | 3.2 | 9.7 | 0.00 | 0.00 | 0.00 | 37 | 1007.5 |
| 20260504225559 | 23 | 172 | 1.6 | 9.7 | 0.00 | 0.00 | 0.00 | 36 | 1007.4 |
| 20260504225058 | 23 | 134 | 1.6 | 6.4 | 0.00 | 0.00 | 0.00 | 35 | 1007.5 |
| 20260504224558 | 23 | 189 | 3.2 | 8.0 | 0.00 | 0.00 | 0.00 | 35 | 1007.5 |
| 20260504224058 | 23 | 0 | 1.6 | 8.0 | 0.00 | 0.00 | 0.00 | 34 | 1007.5 |
| 20260504223600 | 23 | 13 | 3.2 | 8.0 | 0.00 | 0.00 | 0.00 | 34 | 1007.5 |
| 20260504223105 | 23 | 246 | 1.6 | 12.9 | 0.00 | 0.00 | 0.00 | 33 | 1007.4 |
| 20260504222559 | 23 | 309 | 1.6 | 12.9 | 0.00 | 0.00 | 0.00 | 34 | 1007.4 |
| 20260504222058 | 23 | 159 | 3.2 | 12.9 | 0.00 | 0.00 | 0.00 | 33 | 1007.2 |
| 20260504221606 | 24 | 124 | 1.6 | 12.9 | 0.00 | 0.00 | 0.00 | 34 | 1007.3 |
| 20260504221058 | 24 | 251 | 3.2 | 11.3 | 0.00 | 0.00 | 0.00 | 34 | 1007.3 |
| 20260504220559 | 24 | 241 | 3.2 | 8.0 | 0.00 | 0.00 | 0.00 | 34 | 1007.4 |
| 20260504220101 | 24 | 160 | 1.6 | 6.4 | 0.00 | 0.00 | 0.00 | 35 | 1007.5 |
| 20260504215600 | 24 | 188 | 1.6 | 14.5 | 0.00 | 0.00 | 0.00 | 33 | 1007.5 |
| 20260504215059 | 24 | 234 | 0.0 | 14.5 | 0.00 | 0.00 | 0.00 | 35 | 1007.4 |
| 20260504214601 | 24 | 7 | 0.0 | 11.3 | 0.00 | 0.00 | 0.00 | 34 | 1007.7 |
| 20260504214059 | 24 | 149 | 1.6 | 11.3 | 0.00 | 0.00 | 0.00 | 33 | 1007.5 |
| 20260504213558 | 24 | 346 | 3.2 | 11.3 | 0.00 | 0.00 | 0.00 | 34 | 1007.6 |
| 20260504213104 | 24 | 295 | 1.6 | 8.0 | 0.00 | 0.00 | 0.00 | 34 | 1007.6 |
| 20260504212558 | 24 | 314 | 3.2 | 8.0 | 0.00 | 0.00 | 0.00 | 33 | 1007.7 |
| 20260504212100 | 24 | 13 | 1.6 | 11.3 | 0.00 | 0.00 | 0.00 | 35 | 1007.7 |
| 20260504211614 | 24 | 299 | 1.6 | 11.3 | 0.00 | 0.00 | 0.00 | 34 | 1007.7 |
| 20260504211059 | 24 | 152 | 3.2 | 17.7 | 0.00 | 0.00 | 0.00 | 34 | 1007.7 |
| 20260504210602 | 24 | 0 | 4.8 | 17.7 | 0.00 | 0.00 | 0.00 | 35 | 1007.7 |
| 20260504210058 | 23 | 288 | 1.6 | 12.9 | 0.00 | 0.00 | 0.00 | 35 | 1007.7 |
| 20260504205601 | 24 | 247 | 1.6 | 12.9 | 0.00 | 0.00 | 0.00 | 33 | 1007.8 |
| 20260504205059 | 23 | 232 | 1.6 | 12.9 | 0.00 | 0.00 | 0.00 | 35 | 1008.0 |
| 20260504204604 | 23 | 214 | 3.2 | 16.1 | 0.00 | 0.00 | 0.00 | 35 | 1008.0 |
| 20260504204058 | 23 | 121 | 1.6 | 16.1 | 0.00 | 0.00 | 0.00 | 35 | 1008.0 |
| 20260504203600 | 23 | 313 | 1.6 | 12.9 | 0.00 | 0.00 | 0.00 | 35 | 1008.0 |
| 20260504203109 | 23 | 273 | 1.6 | 14.5 | 0.00 | 0.00 | 0.00 | 33 | 1008.0 |
| 20260504202602 | 23 | 276 | 4.8 | 14.5 | 0.00 | 0.00 | 0.00 | 35 | 1008.2 |
| 20260504202058 | 23 | 110 | 4.8 | 16.1 | 0.00 | 0.00 | 0.00 | 33 | 1008.4 |
| 20260504201602 | 23 | 258 | 3.2 | 16.1 | 0.00 | 0.00 | 0.00 | 34 | 1008.5 |
| 20260504201104 | 23 | 145 | 1.6 | 16.1 | 0.00 | 0.00 | 0.00 | 34 | 1008.5 |
| 20260504200602 | 23 | 271 | 4.8 | 14.5 | 0.00 | 0.00 | 0.00 | 34 | 1008.5 |
| 20260504195720 | 23 | 162 | 1.6 | 14.5 | 0.00 | 0.00 | 0.00 | 35 | 1008.6 |
| 20260504195058 | 23 | 240 | 4.8 | 14.5 | 0.00 | 0.00 | 0.00 | 35 | 1008.7 |
| 20260504194559 | 23 | 309 | 4.8 | 11.3 | 0.00 | 0.00 | 0.00 | 35 | 1008.6 |
| 20260504194059 | 23 | 284 | 3.2 | 14.5 | 0.00 | 0.00 | 0.00 | 36 | 1008.7 |
| 20260504193559 | 23 | 345 | 3.2 | 14.5 | 0.00 | 0.00 | 0.00 | 36 | 1008.8 |
| 20260504193059 | 23 | 274 | 3.2 | 14.5 | 0.00 | 0.00 | 0.00 | 36 | 1008.9 |
| 20260504192559 | 23 | 11 | 3.2 | 12.9 | 0.00 | 0.00 | 0.00 | 35 | 1009.0 |
| 20260504192059 | 23 | 9 | 1.6 | 12.9 | 0.00 | 0.00 | 0.00 | 38 | 1009.0 |
| 20260504191610 | 23 | 92 | 3.2 | 12.9 | 0.00 | 0.00 | 0.00 | 37 | 1009.3 |
| 20260504191058 | 23 | 295 | 1.6 | 12.9 | 0.00 | 0.00 | 0.00 | 39 | 1009.3 |
| 20260504190558 | 22 | 307 | 3.2 | 12.9 | 0.00 | 0.00 | 0.00 | 36 | 1009.3 |
| 20260504190121 | 22 | 283 | 3.2 | 16.1 | 0.00 | 0.00 | 0.00 | 36 | 1009.4 |
| 20260504185557 | 22 | 242 | 3.2 | 16.1 | 0.00 | 0.00 | 0.00 | 37 | 1009.5 |
| 20260504185101 | 22 | 269 | 4.8 | 16.1 | 0.00 | 0.00 | 0.00 | 35 | 1009.7 |
| 20260504184605 | 22 | 115 | 3.2 | 11.3 | 0.00 | 0.00 | 0.00 | 38 | 1009.6 |
| 20260504184059 | 22 | 286 | 1.6 | 19.3 | 0.00 | 0.00 | 0.00 | 38 | 1009.7 |
| 20260504183559 | 22 | 0 | 4.8 | 19.3 | 0.00 | 0.00 | 0.00 | 39 | 1009.8 |
| 20260504183107 | 22 | 208 | 3.2 | 9.7 | 0.00 | 0.00 | 0.00 | 38 | 1009.8 |
| 20260504182559 | 22 | 326 | 3.2 | 17.7 | 0.00 | 0.00 | 0.00 | 38 | 1009.8 |
| 20260504182101 | 21 | 301 | 3.2 | 17.7 | 0.00 | 0.00 | 0.00 | 39 | 1010.0 |
| 20260504181601 | 21 | 64 | 3.2 | 14.5 | 0.00 | 0.00 | 0.00 | 37 | 1010.1 |
| 20260504181058 | 21 | 14 | 1.6 | 14.5 | 0.00 | 0.00 | 0.00 | 41 | 1010.2 |
| 20260504180558 | 21 | 103 | 4.8 | 14.5 | 0.00 | 0.00 | 0.00 | 37 | 1010.1 |
| 20260504180117 | 21 | 316 | 1.6 | 14.5 | 0.00 | 0.00 | 0.00 | 37 | 1010.2 |
| 20260504175602 | 21 | 194 | 4.8 | 14.5 | 0.00 | 0.00 | 0.00 | 37 | 1010.2 |
| 20260504175058 | 22 | 304 | 3.2 | 11.3 | 0.00 | 0.00 | 0.00 | 38 | 1010.2 |
| 20260504174601 | 22 | 249 | 3.2 | 14.5 | 0.00 | 0.00 | 0.00 | 37 | 1010.3 |
| 20260504174058 | 21 | 39 | 3.2 | 14.5 | 0.00 | 0.00 | 0.00 | 40 | 1010.2 |
| 20260504173558 | 21 | 143 | 1.6 | 11.3 | 0.00 | 0.00 | 0.00 | 40 | 1010.4 |
| 20260504173059 | 21 | 297 | 4.8 | 14.5 | 0.00 | 0.00 | 0.00 | 37 | 1010.4 |
| 20260504172558 | 21 | 299 | 1.6 | 16.1 | 0.00 | 0.00 | 0.00 | 39 | 1010.5 |
| 20260504172057 | 21 | 295 | 4.8 | 16.1 | 0.00 | 0.00 | 0.00 | 38 | 1010.6 |
| 20260504171600 | 21 | 290 | 3.2 | 12.9 | 0.00 | 0.00 | 0.00 | 40 | 1010.6 |
| 20260504171101 | 21 | 287 | 3.2 | 14.5 | 0.00 | 0.00 | 0.00 | 39 | 1010.6 |
| 20260504170558 | 21 | 13 | 1.6 | 14.5 | 0.00 | 0.00 | 0.00 | 43 | 1010.6 |
| 20260504160108 | 19 | 293 | 4.8 | 14.5 | 0.00 | 0.00 | 0.00 | 41 | 1011.8 |
| 20260504151057 | 18 | 281 | 4.8 | 16.1 | 0.00 | 0.00 | 0.00 | 39 | 1012.5 |
| 20260504150558 | 18 | 225 | 4.8 | 12.9 | 0.00 | 0.00 | 0.00 | 39 | 1012.7 |
| 20260504141058 | 16 | 283 | 1.6 | 8.0 | 0.00 | 0.00 | 0.00 | 48 | 1012.5 |
| 20260504140558 | 15 | 37 | 1.6 | 6.4 | 0.00 | 0.00 | 0.00 | 50 | 1012.6 |
| 20260504140106 | 15 | 351 | 1.6 | 6.4 | 0.00 | 0.00 | 0.00 | 51 | 1012.8 |
| 20260504130558 | 10 | 0 | 0.0 | 1.6 | 0.00 | 0.00 | 0.00 | 64 | 1013.4 |
| 20260504110601 | 2 | 75 | 0.0 | 1.6 | 0.00 | 0.00 | 0.00 | 92 | 1013.7 |
| 20260504100602 | 1 | 0 | 0.0 | 0.0 | 0.00 | 0.00 | 0.00 | 92 | 1013.5 |
| 20260504100103 | 1 | 0 | 0.0 | 0.0 | 0.00 | 0.00 | 0.00 | 92 | 1013.5 |
| 20260504081608 | 1 | 0 | 0.0 | 0.0 | 0.00 | 0.00 | 0.00 | 92 | 1013.9 |
| 20260504081058 | 1 | 0 | 0.0 | 0.0 | 0.00 | 0.00 | 0.00 | 92 | 1013.8 |
| 20260504080603 | 1 | 0 | 0.0 | 0.0 | 0.00 | 0.00 | 0.00 | 92 | 1013.9 |
| 20260504080116 | 1 | 0 | 0.0 | 0.0 | 0.00 | 0.00 | 0.00 | 92 | 1013.8 |
| 20260504050559 | 3 | 0 | 0.0 | 0.0 | 0.00 | 0.00 | 0.00 | 85 | 1013.9 |
| 20260504050107 | 3 | 0 | 0.0 | 0.0 | 0.00 | 0.00 | 0.00 | 85 | 1013.9 |
| 20260504045602 | 3 | 0 | 0.0 | 0.0 | 0.00 | 0.00 | 0.00 | 84 | 1014.0 |
| 20260504045102 | 3 | 0 | 0.0 | 0.0 | 0.00 | 0.00 | 0.00 | 84 | 1014.0 |
| 20260504044603 | 3 | 0 | 0.0 | 0.0 | 0.00 | 0.00 | 0.00 | 84 | 1014.1 |
| 20260504044058 | 3 | 0 | 0.0 | 0.0 | 0.00 | 0.00 | 0.00 | 83 | 1014.0 |
| 20260504043558 | 3 | 0 | 0.0 | 0.0 | 0.00 | 0.00 | 0.00 | 83 | 1014.0 |
| 20260504043102 | 3 | 0 | 0.0 | 0.0 | 0.00 | 0.00 | 0.00 | 83 | 1014.0 |
| 20260504042600 | 3 | 0 | 0.0 | 0.0 | 0.00 | 0.00 | 0.00 | 82 | 1014.1 |
| 20260504042101 | 3 | 0 | 0.0 | 0.0 | 0.00 | 0.00 | 0.00 | 81 | 1014.0 |
| 20260504041602 | 3 | 0 | 0.0 | 0.0 | 0.00 | 0.00 | 0.00 | 81 | 1014.0 |
| 20260504041101 | 3 | 0 | 0.0 | 0.0 | 0.00 | 0.00 | 0.00 | 81 | 1013.9 |
| 20260504040558 | 3 | 0 | 0.0 | 0.0 | 0.00 | 0.00 | 0.00 | 79 | 1013.8 |